Temp
67 69 71 73 72 71 71 71 69 68 70 69 69 68 67 68 67 66 65 65 64 65 67 64 64 66 67 68 65 69 69 70
66 66 68 69 69 68 68 67 68 71 71 70 68 65 66 65 65 63 63 63 62 63 64 64 63 63 62 63 64 64 67 71
63 63 64 65 66 68 68 67 67 66 68 65 69 67 68 65 64 62 60 60 60 61 60 61 61 61 61 61 61 60 64 67
65 64 65 65 65 65 67 68 67 68 67 68 68 69 70 68 66 66 63 61 59 59 59 59 59 58 56 56 55 55 57 62
68 66 66 66 66 66 65 64 63 63 64 62 61 62 61 63 62 62 62 60 59 59 58 59 59 59 55 55 57 56 56 57
68 68 69 69 68 66 64 62 60 58 56 57 54 53 55 56 55 56 60 62 61 60 59 58 58 59 58 58 57 55 58 56
69 70 69 70 69 66 63 61 59 58 56 55 53 50 51 54 55 55 56 58 60 60 58 58 59 59 58 59 58 58 58 58
67 67 67 68 67 65 63 63 60 59 58 57 55 53 52 54 56 56 55 55 55 57 57 57 58 58 57 57 57 57 58 57
67 67 67 68 67 65 64 64 63 62 60 58 56 52 54 60 60 59 57 56 56 57 57 57 57 57 57 57 57 57 56 55
70 69 68 68 68 65 64 64 64 63 61 59 55 57 59 58 57 56 56 55 56 56 56 55 56 56 56 55 54 52 53 53
69 69 68 67 67 66 65 64 63 62 58 56 55 57 59 57 54 52 53 55 55 55 54 54 53 54 54 54 53 53 51 53
68 68 68 67 66 66 64 61 60 57 57 55 55 56 56 55 54 54 55 55 56 56 57 57 55 54 54 53 53 53 52 53
65 65 64 64 62 61 60 60 59 57 58 53 54 55 55 55 55 55 57 56 57 57 57 56 54 53 54 53 51 52 51 51
62 62 61 61 61 60 60 57 58 59 61 50 55 55 55 55 56 56 57 56 56 56 56 55 55 55 55 53 52 51 51 51
60 59 58 58 58 57 57 57 57 57 56 56 55 55 55 56 56 56 56 57 56 56 55 54 53 53 54 53 53 51 50 50
56 56 56 54 53 53 54 53 53 54 54 54 54 55 56 56 56 56 56 56 56 56 55 54 54 54 54 53 53 51 49 48
52 51 51 50 50 50 50 50 50 51 51 50 51 51 51 51 51 50 51 52 54 54 54 54 53 55 47 42 44 48 49 46
48 47 48 47 48 48 48 48 49 48 48 49 49 48 48 48 49 49 47 47 48 46 46 47 50 53 45 41 40 48 48 46
46 46 47 48 49 49 49 48 48 46 46 46 46 46 45 46 46 46 46 46 46 44 44 47 45 46 43 41 39 47 47 46
MSLP
1017.64 1017.97 1018.13 1018.22 1018.58 1018.96 1019.06 1019.41 1019.80 1020.01 1020.09 1020.34 1020.53 1020.86 1021.16 1021.12 1021.07 1021.05 1021.11 1021.12 1020.97 1020.65 1020.08 1020.21 1020.18 1019.68 1019.16 1018.87 1018.71 1018.05 1017.65 1017.18
1017.88 1018.48 1018.77 1018.92 1019.03 1019.06 1019.17 1019.42 1019.73 1019.77 1019.85 1020.20 1020.33 1020.67 1021.53 1021.35 1021.55 1021.41 1021.42 1021.19 1021.02 1020.72 1020.19 1020.09 1020.06 1019.72 1019.50 1019.30 1018.85 1018.30 1017.68 1017.02
1017.93 1018.38 1018.80 1018.98 1019.19 1019.30 1019.27 1019.43 1019.64 1019.80 1019.99 1020.33 1020.49 1020.66 1021.34 1021.56 1021.58 1021.75 1021.92 1021.54 1021.25 1021.01 1020.64 1020.15 1020.19 1020.12 1019.86 1019.52 1019.20 1018.71 1018.12 1017.52
1017.14 1017.78 1018.26 1018.75 1019.08 1019.40 1019.47 1019.59 1019.80 1019.81 1019.77 1020.09 1020.46 1020.80 1020.74 1021.04 1021.45 1021.45 1021.64 1021.54 1021.34 1021.10 1020.61 1020.54 1020.41 1020.43 1020.29 1019.97 1019.71 1019.32 1018.63 1018.04
1016.29 1016.99 1017.48 1018.13 1018.60 1019.27 1019.73 1020.19 1020.51 1020.55 1020.36 1020.42 1020.49 1020.97 1021.14 1021.52 1021.84 1021.91 1021.67 1021.85 1021.48 1020.90 1020.82 1020.82 1020.17 1020.12 1020.12 1020.02 1019.72 1019.19 1018.88 1018.39
1015.71 1016.44 1017.01 1017.62 1018.31 1019.06 1019.60 1020.20 1020.70 1021.10 1021.19 1020.87 1020.76 1021.63 1022.32 1022.00 1021.96 1021.56 1021.35 1021.05 1021.02 1020.95 1020.68 1020.49 1020.31 1019.77 1020.04 1019.80 1019.68 1019.22 1019.04 1018.69
1015.37 1015.81 1016.55 1016.94 1017.81 1018.70 1019.70 1020.21 1020.64 1021.11 1021.27 1021.29 1021.19 1021.70 1022.21 1021.83 1021.78 1021.75 1021.37 1021.08 1020.98 1020.70 1020.64 1020.45 1020.26 1019.93 1020.00 1019.67 1019.62 1019.14 1019.11 1018.55
1015.04 1015.47 1015.93 1016.49 1017.30 1018.27 1019.21 1019.76 1020.40 1021.01 1021.32 1021.40 1021.55 1021.73 1021.76 1021.77 1021.67 1021.55 1021.45 1021.24 1020.96 1020.50 1020.37 1020.32 1020.30 1020.32 1020.00 1019.79 1019.60 1019.22 1018.83 1018.42
1014.62 1015.16 1015.63 1016.17 1017.02 1018.01 1018.71 1019.22 1019.77 1020.62 1020.97 1021.30 1021.47 1021.49 1021.36 1021.06 1021.14 1021.25 1021.21 1021.01 1020.71 1020.36 1020.14 1020.03 1020.02 1019.99 1019.67 1019.73 1019.44 1019.00 1018.70 1018.56
1014.20 1014.69 1015.26 1015.75 1016.39 1017.50 1018.20 1018.82 1019.45 1020.29 1020.83 1021.23 1021.51 1021.08 1021.10 1021.07 1021.10 1021.07 1020.97 1020.68 1020.32 1020.05 1019.86 1019.65 1019.46 1019.55 1019.51 1019.29 1018.99 1018.81 1018.55 1018.24
1014.21 1014.54 1014.94 1015.54 1016.24 1017.22 1018.05 1018.58 1019.25 1019.95 1020.71 1021.06 1021.00 1020.63 1020.86 1020.91 1020.90 1020.82 1020.75 1020.32 1020.04 1019.73 1019.49 1019.29 1019.14 1019.03 1018.84 1018.67 1018.39 1018.14 1018.00 1017.70
1014.58 1014.76 1015.10 1015.71 1016.54 1017.36 1018.07 1018.84 1019.34 1020.00 1020.30 1020.58 1020.15 1020.40 1020.42 1020.45 1020.42 1020.33 1020.07 1019.79 1019.46 1019.18 1018.84 1018.47 1018.34 1018.24 1018.15 1017.92 1017.71 1017.44 1017.18 1016.93
1015.41 1015.57 1015.89 1016.17 1016.98 1017.79 1018.66 1018.86 1019.39 1019.79 1019.85 1019.87 1020.07 1020.27 1020.01 1019.89 1019.66 1019.48 1019.25 1018.99 1018.70 1018.51 1018.31 1018.03 1017.85 1017.78 1017.54 1017.25 1017.09 1016.88 1016.50 1016.17
1016.33 1016.58 1016.97 1017.18 1017.78 1018.62 1018.91 1019.32 1019.40 1019.37 1019.09 1019.76 1019.35 1019.36 1019.37 1019.31 1019.23 1019.07 1018.83 1018.54 1018.17 1017.93 1017.73 1017.47 1017.17 1016.90 1016.63 1016.49 1016.38 1016.15 1015.90 1015.63
1017.32 1017.82 1018.26 1018.59 1018.93 1019.49 1019.59 1019.37 1019.70 1019.66 1019.47 1019.35 1019.20 1019.23 1019.26 1019.01 1018.74 1018.45 1018.13 1017.86 1017.46 1017.09 1016.89 1016.69 1016.52 1016.31 1016.02 1015.79 1015.58 1015.35 1015.22 1015.06
1018.88 1019.16 1019.51 1019.95 1020.07 1020.35 1020.43 1020.65 1020.49 1020.25 1019.73 1019.54 1019.40 1019.27 1019.05 1018.61 1018.22 1017.88 1017.47 1017.07 1016.74 1016.37 1016.00 1015.76 1015.50 1015.22 1014.86 1014.58 1014.53 1014.41 1014.27 1014.23
1020.37 1020.66 1020.94 1021.11 1021.34 1021.47 1021.55 1021.49 1021.25 1020.92 1020.55 1020.38 1020.20 1019.93 1019.59 1019.04 1018.58 1018.08 1017.50 1016.86 1016.20 1015.61 1014.95 1014.48 1014.12 1013.81 1013.58 1013.82 1014.08 1014.01 1013.61 1013.45
1021.53 1021.76 1022.03 1022.21 1022.21 1022.22 1022.08 1022.00 1021.86 1021.58 1021.27 1020.95 1020.66 1020.34 1019.87 1019.38 1018.75 1018.11 1017.50 1016.95 1016.36 1015.84 1015.20 1014.69 1013.66 1012.80 1012.65 1012.79 1013.20 1013.23 1012.88 1012.63
1022.56 1022.77 1022.81 1022.89 1022.91 1022.71 1022.48 1022.32 1022.08 1021.91 1021.70 1021.45 1021.14 1020.68 1020.07 1019.50 1018.89 1018.21 1017.55 1016.82 1016.06 1015.45 1014.79 1014.06 1013.31 1012.64 1012.38 1011.96 1012.05 1012.18 1011.85 1011.52
Wind_Speed
7 7 7 8 9 9 10 9 9 9 7 6 5 6 5 5 5 6 7 6 7 7 5 5 7 7 7 6 9 8 8 8
8 8 7 8 9 10 10 9 7 5 4 4 4 5 3 5 5 8 7 7 8 7 5 6 7 7 8 8 8 9 7 6
9 10 9 9 9 9 10 10 8 7 5 5 3 4 2 4 5 5 6 7 7 6 6 6 7 7 8 8 7 6 7 6
13 13 13 11 11 10 9 8 8 7 9 6 4 3 1 4 5 4 5 6 5 6 6 5 5 5 6 7 4 6 6 7
13 15 15 13 12 10 8 7 6 6 7 7 8 4 5 6 6 6 7 5 5 5 5 6 5 5 6 6 5 6 7 7
13 15 15 15 13 11 9 8 7 5 4 6 6 5 3 3 4 6 8 7 6 6 5 6 7 5 6 7 6 6 6 6
11 12 14 15 13 12 10 11 7 7 5 5 7 5 3 4 5 6 6 6 6 6 6 6 6 7 7 7 7 7 7 7
9 13 15 16 16 14 12 10 8 7 6 5 5 4 2 6 7 6 8 7 6 7 5 6 6 6 7 7 8 9 8 8
7 11 13 16 16 15 14 11 10 9 7 5 5 5 4 5 6 7 7 7 8 8 8 8 9 9 8 9 8 8 8 8
8 9 11 14 16 16 14 12 10 8 6 3 5 6 7 7 8 8 8 10 9 11 11 10 11 11 11 11 8 10 10 10
10 10 10 10 14 13 13 10 9 8 4 5 6 5 9 9 7 9 12 12 12 13 12 12 12 12 12 12 11 11 11 10
11 10 7 8 10 12 9 8 9 5 6 8 5 9 10 10 10 11 12 13 13 14 14 14 13 13 13 12 13 14 14 13
10 10 8 6 3 4 8 7 6 5 8 6 7 13 12 12 12 13 13 13 13 13 14 14 14 14 15 15 14 14 15 15
12 12 10 8 5 3 3 3 7 13 14 7 12 13 14 14 14 14 14 13 14 13 14 14 15 15 16 15 16 16 15 15
13 12 11 10 9 9 10 10 11 12 12 12 14 13 14 13 14 15 15 15 15 15 14 14 15 15 15 15 15 15 15 14
12 12 12 12 13 12 12 11 12 12 11 11 12 13 14 15 16 16 17 16 16 16 16 16 16 15 12 15 15 14 14 14
10 11 11 11 11 11 10 11 11 12 11 11 12 13 14 14 15 15 17 17 18 18 19 19 19 14 13 12 13 15 16 15
10 10 10 10 11 11 11 12 11 12 12 13 13 14 15 15 16 17 17 17 17 16 16 19 21 21 15 15 14 15 16 15
8 8 9 10 11 11 11 11 11 13 14 14 15 15 16 17 17 18 18 17 18 16 17 21 18 15 22 15 17 17 17 17
Wind_Direction
124 126 120 119 118 118 116 106 103 102 102 102 95 75 63 35 38 39 14 7 355 338 328 329 320 310 302 312 305 299 293 287
150 140 142 143 145 145 140 130 130 129 118 116 92 77 47 34 20 25 13 6 1 343 339 327 330 318 320 305 300 293 290 284
169 166 165 171 167 163 159 148 135 125 116 100 65 57 46 23 6 15 6 4 4 346 345 339 335 318 307 304 303 319 292 284
188 186 187 184 183 183 176 156 134 116 121 117 97 85 39 2 350 351 1 356 7 1 4 349 331 322 319 314 316 292 305 297
203 200 195 192 190 182 172 152 136 118 107 97 89 50 10 10 345 344 328 334 324 352 341 333 332 321 314 321 315 297 293 285
213 212 207 201 187 185 176 157 145 139 106 118 122 81 353 319 286 324 325 318 317 317 314 324 314 316 309 304 299 299 292 288
225 219 214 208 193 189 179 178 185 174 177 156 123 134 253 322 316 309 308 304 298 280 297 296 300 303 299 303 296 283 279 274
222 223 216 217 202 195 192 199 186 185 181 139 128 155 204 276 290 297 298 286 276 273 277 277 275 275 282 292 289 282 274 275
243 241 231 222 214 206 201 198 194 181 173 186 203 210 238 262 283 298 286 282 276 273 260 260 259 268 277 277 279 281 279 268
317 280 254 237 221 210 205 201 196 183 191 267 255 248 262 276 287 287 284 281 277 272 270 268 265 265 267 269 271 271 271 268
327 303 276 245 227 213 206 200 189 179 225 266 275 273 263 270 275 274 274 276 274 273 267 263 259 263 264 264 269 268 265 267
346 333 298 264 231 223 193 186 178 194 243 251 286 261 254 261 262 266 269 274 272 271 272 271 272 266 266 267 270 272 269 269
18 16 8 344 274 199 198 183 195 268 291 306 279 270 256 257 260 260 263 268 273 273 272 270 266 270 271 267 268 269 271 272
39 40 41 52 86 126 118 194 272 289 308 261 267 262 258 266 278 282 281 275 271 268 266 268 269 269 267 265 269 270 271 270
42 41 40 40 32 6 339 345 334 324 318 303 298 290 290 292 290 285 280 275 272 269 266 268 271 273 270 268 267 269 270 270
45 39 39 34 29 20 15 8 358 349 338 329 322 314 307 307 303 297 292 285 278 277 273 268 266 265 263 264 267 270 265 263
40 40 38 34 28 18 15 10 9 2 3 355 347 341 333 326 320 314 306 301 298 294 284 272 269 265 258 221 242 267 270 268
39 34 33 26 20 12 10 2 1 360 354 348 343 337 330 326 321 317 312 309 303 294 290 294 288 279 257 215 216 250 262 259
35 27 21 20 9 4 355 354 354 352 349 343 341 337 332 328 325 321 317 312 307 306 298 292 284 279 281 228 211 242 255 256